This is the latest recevied weather packets stored in our database for station/object W3TMB. If no packets are shown the sender has not sent any weather packets the latest 10 day(s).
| Time | Temp. | Humidity | Pressure | Rain* | Wind** | Luminosity | Snow |
|---|---|---|---|---|---|---|---|
| 1778000640 | 26.11° C | 45% | 1004.3 hPa | 0 mm | - | 560 W/m² | - |
| 1778000335 | 25.56° C | 48% | 1004.5 hPa | 0 mm | - | 471 W/m² | - |
| 1778000031 | 26.11° C | 46% | 1004.2 hPa | 0 mm | - | 368 W/m² | - |
| 1777999726 | 26.11° C | 45% | 1004.5 hPa | 0 mm | - | 481 W/m² | - |
| 1777999423 | 26.11° C | 47% | 1004.5 hPa | 0 mm | - | 563 W/m² | - |
| 1777999122 | 25° C | 49% | 1004.5 hPa | 0 mm | - | 524 W/m² | - |
| 1777998820 | 25° C | 48% | 1004.6 hPa | 0 mm | - | 383 W/m² | - |
| 1777998519 | 25° C | 48% | 1004.7 hPa | 0 mm | - | 347 W/m² | - |
| 1777998214 | 25° C | 47% | 1004.6 hPa | 0 mm | - | 345 W/m² | - |
| 1777997911 | 25° C | 48% | 1004.5 hPa | 0 mm | - | 361 W/m² | - |
| 1777997608 | 25° C | 49% | 1004.7 hPa | 0 mm | - | 195 W/m² | - |
| 1777997306 | 25° C | 47% | 1004.7 hPa | 0 mm | - | 250 W/m² | - |
| 1777997003 | 25° C | 49% | 1005.1 hPa | 0 mm | - | 236 W/m² | - |
| 1777996700 | 25° C | 48% | 1005.2 hPa | 0 mm | - | 239 W/m² | - |
| 1777996396 | 25.56° C | 48% | 1005.4 hPa | 0 mm | - | 306 W/m² | - |
| 1777996093 | 25.56° C | 49% | 1005.2 hPa | 0 mm | - | 235 W/m² | - |
| 1777995789 | 25.56° C | 49% | 1005.2 hPa | 0 mm | - | 269 W/m² | - |
| 1777995485 | 26.11° C | 49% | 1005.3 hPa | 0 mm | - | 233 W/m² | - |
| 1777995183 | 25.56° C | 48% | 1005.4 hPa | 0 mm | - | 729 W/m² | - |
| 1777994880 | 25.56° C | 49% | 1005.3 hPa | 0 mm | - | 353 W/m² | - |
| 1777994575 | 25.56° C | 48% | 1005 hPa | 0 mm | - | 740 W/m² | - |
| 1777994270 | 25.56° C | 49% | 1005.3 hPa | 0 mm | - | 796 W/m² | - |
| 1777993968 | 25.56° C | 52% | 1005 hPa | 0 mm | - | 835 W/m² | - |
| 1777993665 | 25.56° C | 50% | 1005.1 hPa | 0 mm | - | 272 W/m² | - |
| 1777993362 | 25° C | 53% | 1005.3 hPa | 0 mm | - | 314 W/m² | - |
* Rain latest hour (hover to see other rain measurements)
** Current wind speed in m/s (hover to see current wind gust speed)